#timestamp,LO_Frequency,Hit,StdDev 
1601730275.5,286046986.3,P
1601730295.4,286046986.3,P
1601730315.2,286046986.3,P
1601730335.0,286046986.2,Y
1601730335.9,286046986.2,P
1601730355.8,286047001.1,P
1601730375.6,286047000.8,N
1601730395.5,286047000.2,N
1601730415.3,286047000.5,N
1601730435.1,286047000.4,N
1601730455.9,286047000.4,N
1601730475.7,286047000.8,N
1601730495.5,286047000.7,N
1601730515.4,286047000.7,N
1601730535.2,286047000.8,N
1601730555.1,286047000.7,N
1601730556.0,286047000.7,N
1601730575.8,286047000.9,N
1601730595.6,286046999.8,N
1601730615.5,286046999.8,N
1601730635.3,286046999.9,N
1601730655.1,286046999.9,N
1601730675.9,286047002.7,N
1601730695.7,286047000.2,N
1601730715.6,286047000.1,N
1601730735.4,286046999.8,N
1601730755.2,286047000.2,N
1601730775.1,286047000.5,N
1601730776.0,286047000.5,N
1601730795.8,286046998.7,N
1601730815.6,286046998.7,N
1601730835.5,286046996.5,N
1601730855.3,286046997.7,N
1601730875.2,286046997.2,N
1601730895.9,286046999.6,N
1601730915.7,286046999.3,N
1601730935.6,286046999.3,N
1601730955.4,286046999.5,N
1601730975.2,286046998.2,N
1601730995.1,286046998.7,N
1601730996.0,286046998.7,N
1601731015.8,286046999.0,N
1601731035.7,286046997.2,N
1601731055.5,286046996.8,N
1601731075.3,286046996.7,N
1601731095.2,286046997.3,N
1601731115.0,286046997.1,N
1601731115.9,286046997.1,N
1601731135.8,286046998.0,N
1601731155.6,286046997.7,N
1601731175.4,286046996.7,N
1601731195.3,286046996.9,N
1601731215.1,286046996.8,N
1601731235.8,286046997.7,N
1601731255.7,286046997.7,N
1601731275.5,286046997.4,N
1601731295.4,286046997.5,N
1601731315.2,286046997.2,N
1601731335.0,286046997.3,N
1601731335.9,286046997.3,N
1601731355.8,286046997.7,N
1601731375.6,286046997.9,N
1601731395.5,286046993.3,Y
1601731415.3,286046997.4,P
1601731435.1,286046998.0,P
1601731455.9,286046997.7,P
1601731475.7,286046997.9,Y
1601731495.6,286046996.5,P
1601731515.4,286046996.7,P
1601731535.2,286046999.5,N
1601731555.1,286046996.9,N
1601731556.0,286046996.9,N
1601731575.8,286046997.1,N
1601731595.6,286046996.5,Y
1601731615.5,286047000.2,P
1601731635.3,286047000.2,N
1601731655.2,286046999.9,N
1601731675.9,286047000.3,N
1601731695.7,286047000.1,N
1601731715.6,286047000.3,N
1601731735.4,286047000.4,N
1601731755.2,286046999.9,N
1601731775.1,286047000.1,N
1601731776.0,286047000.1,N
1601731795.8,286047000.1,N
1601731815.7,286047000.2,N
1601731835.5,286047000.6,N
1601731855.3,286047000.4,N
1601731875.2,286047000.9,N
1601731895.0,286047002.8,Y
1601731895.9,286047002.8,P
1601731915.8,286047000.2,N
1601731935.6,286047000.4,N
1601731955.4,286047000.4,N
1601731975.3,286047000.6,N
1601731995.1,286047002.4,N
1601732015.9,286047002.4,N
1601732035.7,286047002.6,N
1601732055.5,286047002.0,N
1601732075.4,286047002.7,N
1601732095.2,286047001.7,N
1601732115.1,286047002.5,N
1601732116.0,286047002.5,N
1601732135.8,286047001.7,N
1601732155.6,286047003.7,Y
1601732175.5,286047002.2,P
1601732195.3,286047000.7,N
1601732215.1,286047000.7,N
1601732235.9,286046998.9,N
1601732255.7,286046999.6,N
1601732275.6,286046996.6,Y
1601732295.4,286046997.0,P
1601732315.2,286046995.1,N
1601732335.1,286046995.2,N
1601732336.0,286046995.2,N
1601732355.8,286046995.5,N
1601732375.7,286046996.1,N
1601732395.5,286046995.7,N
1601732415.3,286046996.2,N
1601732435.2,286046995.5,N
1601732455.0,286046997.6,N
1601732455.9,286046997.6,N
1601732475.8,286046997.2,N
1601732495.6,286046997.0,N
1601732515.4,286046998.5,N
1601732535.3,286047000.8,N
1601732555.1,286047000.5,N
1601732575.8,286047000.7,N
1601732595.7,286047001.2,N
1601732615.5,286046998.9,N
1601732635.4,286046998.9,N
1601732655.2,286046998.9,N
1601732675.0,286046999.3,N
1601732675.9,286046999.3,N
1601732695.8,286046998.5,N
1601732715.6,286047000.9,N
1601732735.4,286047000.8,N
1601732755.3,286046998.9,N
1601732775.1,286046999.0,N
1601732795.9,286046999.2,N
1601732815.7,286046996.6,N
1601732835.5,286046994.9,N
1601732855.4,286046996.2,N
1601732875.2,286046993.8,Y
1601732895.0,286046995.8,P
1601732896.0,286046995.8,P
1601732915.8,286046993.3,P
1601732935.6,286046993.6,Y
1601732955.5,286046999.3,P
1601732975.3,286046999.2,N
1601732995